Погода в Тересполе

Польша     52°04′27″N   23°36′55″E
темп.,
°C
ветер,
м/с
пор.,
м/с
влажн.,
%
обл.,
%
осадки,
мм/ч
давл.,
гПа
погр.,
м
1 марта, пн
пн101:00+3ссз51091100 0.4 1030375
04:00+2ссз489498 0.0 1031269
07:000ссз249869 0.0 1032118
10:00+4сз347944 0.0 1034491
13:00+6зсз457352 0.0 1034585
16:00+5зсз467420 0.0 1033534
19:00+3з489010 0.0 1033274
22:00+1з510958 0.0 1033301
2 марта, вт
вт201:00+1з5119624 0.0 1032327
04:00+2з7119588 0.0 1030396
07:00+2з6109294 0.0 1030414
10:00+6зсз6116949 0.0 1029540
13:00+9зсз8125524 0.0 1028718
16:00+8сз611594 0.0 1028720
19:00+5сз512772 0.0 1029378
22:00+3сз37920 0.0 1031203
3 марта, ср
ср301:00+1ссз34954 0.0 103283
04:000сз22950 0.0 103125
07:00+1сз119327 0.0 103121
10:00+4зюз1274100 0.0 1030307
13:00+7зюз235277 0.0 1029629
16:00+7зюз24590 0.0 1025189
19:00+4ююз34810 0.0 102461
22:00+3юз47840 0.0 1022116
4 марта, чт
чт401:00+2юз47850 0.0 1019143
04:00+2юз511886 0.0 1015241
07:00+2зюз612913 0.0 1014353
10:00+7з7117624 0.0 1012804
13:00+10з7116131 0.0 10111259
16:00+9з5106468 0.0 10091145
19:00+6зсз387882 0.0 1009271
22:00+3сз3681100 0.0 1008424
5 марта, пт
пт501:00+3з3583100 0.1 1008392
04:00−2с71094100 0.7 1009453
07:00−1с6966100 1.1 1012749
10:00+1с684899 0.0 10141071
13:00+3с683863 0.0 10161616
16:00+2сз574441 0.0 10171884
19:00−1ссз487867 0.5 1019898
22:00−2сз486144 0.0 1021336